STARLINK-11695, 63551

Orbit data source: Space-Track

STARLINK-11695, 63551 is a payload satellite owned by SpaceX/Seattle (US) in LEO that was launched on Sun, 13 Apr 2025 UTC via an FALCON 9 launch vehicle from the Air Force Eastern Test Range (AFETR). Payload-class satellites include a variety of spacecraft equipped with specific instruments for various scientific and technological missions. These include communications satellites like Starlink; space stations such as the ISS; scientific satellites like the Hubble; Earth observation satellites from companies like Planet Labs, Umbra, and HawkEye 360; GPS; miniature CubeSats for education and research; and military/defense satellites.

Loading next visibility...
Identifier
63551, 2025-075D
Orbit
LEO
Last TLE update
9 hours ago
Origin
Manufacturer
SpaceX/Seattle
Mission
Operational spacecraft
Bus & Motor
STARLINK V2M, Unknown motor
Mass
730 kg wet, ~700 kg dry
Launch date (UTC)
2025-04-13 (3 weeks ago)
Launch vehicle
FALCON 9
Launch site
Air Force Eastern Test Range (AFETR)
Object type
Payload
Rocket body
Debris
Shape & HBR
Unknown
Radar Cross Section
Large (>1 m²)

Expand to show TLE details & history

TLE from 9 hours ago
0 STARLINK-11695
1 63551U 25075D   25126.00002315  .00010064  00000-0  60678-4 0  9998
2 63551  42.9988 210.7536 0001578 281.2576   1.5389 15.77836578  4825
Epoch: 2025-05-06T00:00Z
Definitive object data (Epoch: 2025-05-06T00:00:02Z)
Latitude
-41.85112°
Longitude
-86.13978°
Altitude
348.285 km
Speed
7.701 km/s
True Right ascension
09h 11m 53s
True Declination
-41° 40' 11"
Sunlit
Object was in daylight at TLE epoch
Visualization TLE readout
Latitude
-42.41661°
Longitude
-118.66548°
Altitude
348.583 km
Speed
7.701 km/s
Apparent Right ascension
06h 00m 43s
Apparent Declination
-42° 03' 07"
Sunlit
Object is in daylight
Visualization observer readout
Local Sidereal Time
16:58:42
Azimuth
254.617° W
Elevation
-78.119°
Doppler factor
1
Orbital elements
Apogee altitude
339.619 km
Perigee altitude
337.499 km
Semi-major axis
6,716.696 km
Eccentricity
0.0001578
Inclination
42.9988°
RAAN
210.7536°
Arg. of periapsis
281.2576°
True anomaly
1.53939°
Mean anomaly
1.5389°
Eccentric anomaly
1.53914°
Mean motion
3.94284 °/min
BSTAR
0.000060678
Orbital period
91.3 mins
Loading maneuver chart data...
Loading SW <> Apogee altitude chart data...
Loading historical data...
Loading historical data...
Loading historical data...
Loading historical data...
Loading historical data...
Loading historical data...
Loading historical data...

STARLINK-11695 Visibility forecast

Observer location: undefined°, undefined°

Span
Click to sort rows by Start time (UTC) header in descending order
Start Az.
Max El. time (UTC)
Max El. Az.
Max El.
End time (UTC)
End Az.
5 mins2025-05-06 09:40:16.425Z237.134° WSW2025-05-06 09:43:16.425Z126.783° SE39.211°2025-05-06 09:45:16.425Z78.724° E
4 mins2025-05-06 11:17:16.425Z290.5° WNW2025-05-06 11:18:16.425Z322.135° NNW32.82°2025-05-06 11:21:16.425Z67.988° E
4 mins2025-05-06 12:53:16.425Z302.691° NW2025-05-06 12:54:16.425Z338.101° N37.165°2025-05-06 12:57:16.425Z90.225° ESE
|